Time_in_sec,gx,gy,gz
1314365037.96949530,0.13526860,-0.01177436,-0.99073900
1314365038.02468252,0.13513736,-0.01163883,-0.99075851
1314365038.06550860,0.13504996,-0.01164271,-0.99077038
1314365038.11350298,0.13495522,-0.01176773,-0.99078182
1314365038.16552544,0.13504213,-0.01180911,-0.99076948
1314365038.21762228,0.13514797,-0.01179040,-0.99075527
1314365038.26549649,0.13519918,-0.01176021,-0.99074865
1314365038.31254244,0.13559867,-0.01197955,-0.99069142
1314365038.36550665,0.13563321,-0.01207903,-0.99068548
1314365038.41268539,0.13567147,-0.01204424,-0.99068067
1314365038.46453953,0.13534648,-0.01193530,-0.99072644
1314365038.51345205,0.13534553,-0.01200003,-0.99072579
1314365038.56463528,0.13547325,-0.01204976,-0.99070773
1314365038.61258721,0.13535032,-0.01197471,-0.99072544
1314365038.66548586,0.13538183,-0.01202219,-0.99072056
1314365038.71261954,0.13563740,-0.01208064,-0.99068489
1314365038.76548815,0.13577401,-0.01227575,-0.99066378
1314365038.81352854,0.13579543,-0.01234290,-0.99066001
1314365038.86563373,0.13567610,-0.01239005,-0.99067577
1314365038.91376352,0.13578341,-0.01240058,-0.99066094
1314365038.96564054,0.13574782,-0.01231240,-0.99066691
1314365039.01261640,0.13560541,-0.01267455,-0.99068185
1314365039.06547022,0.13557095,-0.01271965,-0.99068599
1314365039.11302352,0.13563201,-0.01286993,-0.99067569
1314365039.16930985,0.13555226,-0.01298228,-0.99068514
1314365039.22556424,0.13559143,-0.01289687,-0.99068089
1314365039.26854897,0.13552136,-0.01316117,-0.99068701
1314365039.31350517,0.13538440,-0.01352471,-0.99070084
1314365039.36461020,0.13531623,-0.01353551,-0.99071000
1314365039.41351748,0.13556101,-0.01375873,-0.99067346
1314365039.46556020,0.13567126,-0.01385824,-0.99065698
1314365039.51672173,0.13576330,-0.01405549,-0.99064159
1314365039.56949830,0.13572810,-0.01407320,-0.99064617
1314365039.61353254,0.13533618,-0.01415083,-0.99069868
1314365039.66555166,0.13525504,-0.01437603,-0.99070652
1314365039.71344829,0.13519727,-0.01437196,-0.99071446
1314365039.76559234,0.13520594,-0.01447720,-0.99071175
1314365039.81262231,0.13517182,-0.01469875,-0.99071314
1314365039.86556125,0.13528552,-0.01471696,-0.99069735
1314365039.91254044,0.13539168,-0.01470020,-0.99068310
1314365039.96950960,0.13527947,-0.01461060,-0.99069975
1314365040.01345181,0.13521637,-0.01463746,-0.99070797
1314365040.07259965,0.13517517,-0.01465084,-0.99071339
1314365040.11344862,0.13525724,-0.01467210,-0.99070188
1314365040.16860843,0.13512023,-0.01438808,-0.99072474
1314365040.21261191,0.13510864,-0.01430819,-0.99072748
1314365040.27153039,0.13518255,-0.01427447,-0.99071788
1314365040.31259608,0.13491732,-0.01412491,-0.99075618
1314365040.36461759,0.13480636,-0.01423332,-0.99076973
1314365040.41357327,0.13498385,-0.01401119,-0.99074873
1314365040.46470690,0.13503272,-0.01402391,-0.99074189
1314365040.51350760,0.13481802,-0.01419652,-0.99076867
1314365040.56464767,0.13490984,-0.01398486,-0.99075918
1314365040.61259961,0.13480187,-0.01403193,-0.99077321
1314365040.66572571,0.13497062,-0.01381013,-0.99075336
1314365040.71262693,0.13485486,-0.01396752,-0.99076691
1314365040.76961303,0.13473277,-0.01414407,-0.99078102
1314365040.82464433,0.13427114,-0.01403972,-0.99084517
1314365040.86465454,0.13434812,-0.01409506,-0.99083395
1314365040.91347027,0.13434209,-0.01406371,-0.99083521
1314365040.96457911,0.13422405,-0.01423091,-0.99084882
1314365041.01422858,0.13452682,-0.01436667,-0.99080580
1314365041.06354380,0.13484106,-0.01424169,-0.99076489
1314365041.11259460,0.13474381,-0.01451007,-0.99077422
1314365041.16455364,0.13464200,-0.01450343,-0.99078816
1314365041.21330571,0.13457697,-0.01441444,-0.99079830
1314365041.26565123,0.13473654,-0.01440412,-0.99077676
1314365041.31348538,0.13484110,-0.01441021,-0.99076245
1314365041.36564779,0.13512587,-0.01444290,-0.99072317
1314365041.41258764,0.13503298,-0.01428058,-0.99073819
1314365041.46549535,0.13494058,-0.01443053,-0.99074861
1314365041.51362920,0.13485632,-0.01435448,-0.99076118
1314365041.56951356,0.13474814,-0.01437931,-0.99077554
1314365041.61351061,0.13453576,-0.01444336,-0.99080347
1314365041.66453052,0.13427704,-0.01420458,-0.99084202
1314365041.71345615,0.13413512,-0.01414548,-0.99086209
1314365041.76455331,0.13367397,-0.01385246,-0.99092854
1314365041.81252742,0.13352018,-0.01377209,-0.99095040
1314365041.86551666,0.13342466,-0.01364345,-0.99096504
1314365041.91255999,0.13354035,-0.01360837,-0.99094994
1314365041.96454215,0.13323532,-0.01364805,-0.99099045
1314365042.01652765,0.13309562,-0.01343969,-0.99101207
1314365042.06451440,0.13311115,-0.01324967,-0.99101255
1314365042.11344242,0.13313247,-0.01325577,-0.99100960
1314365042.16465116,0.13275169,-0.01340778,-0.99105864
1314365042.21358418,0.13301310,-0.01360751,-0.99102086
1314365042.26830983,0.13318248,-0.01340159,-0.99100092
1314365042.31346822,0.13336867,-0.01375083,-0.99097110
1314365042.36947322,0.13348076,-0.01386536,-0.99095441
1314365042.42543840,0.13338877,-0.01367476,-0.99096944
1314365042.46454120,0.13349050,-0.01326717,-0.99096129
1314365042.51243401,0.13355439,-0.01318726,-0.99095374
1314365042.56550550,0.13346178,-0.01323891,-0.99096553
1314365042.61351132,0.13336138,-0.01314070,-0.99098036
1314365042.66547847,0.13326337,-0.01348418,-0.99098893
1314365042.71357465,0.13320407,-0.01350774,-0.99099658
1314365042.76461101,0.13332367,-0.01366937,-0.99097828
1314365042.82557392,0.13366119,-0.01388187,-0.99092986
1314365042.86575866,0.13332094,-0.01410201,-0.99097258
1314365042.91314912,0.13344959,-0.01419975,-0.99095387
1314365042.96447849,0.13348200,-0.01423136,-0.99094905
1314365043.01256084,0.13365134,-0.01454020,-0.99092174
1314365043.06287909,0.13342721,-0.01455597,-0.99095172
1314365043.11259317,0.13371077,-0.01465021,-0.99091211
1314365043.16950798,0.13379267,-0.01458800,-0.99090197
1314365043.21350455,0.13379747,-0.01470598,-0.99089958
1314365043.26555514,0.13377241,-0.01462362,-0.99090418
1314365043.31344032,0.13405056,-0.01475487,-0.99086464
1314365043.36542511,0.13386364,-0.01462132,-0.99089189
1314365043.41271281,0.13347659,-0.01451220,-0.99094571
1314365043.46563077,0.13364419,-0.01428239,-0.99092646
1314365043.51250052,0.13375717,-0.01423950,-0.99091183
1314365043.56948471,0.13402143,-0.01436944,-0.99087425
1314365043.61350083,0.13402882,-0.01427775,-0.99087457
1314365043.66551518,0.13379963,-0.01446728,-0.99090280
1314365043.71340632,0.13353306,-0.01439503,-0.99093981
1314365043.76389861,0.13370717,-0.01444604,-0.99091559
1314365043.81252050,0.13368938,-0.01432506,-0.99091975
1314365043.86947227,0.13363245,-0.01444856,-0.99092563
1314365043.91252661,0.13363114,-0.01459230,-0.99092370
1314365043.96548605,0.13361180,-0.01465521,-0.99092538
1314365044.02547693,0.13368251,-0.01484464,-0.99091302
1314365044.06454325,0.13327134,-0.01509210,-0.99096467
1314365044.11347008,0.13313902,-0.01534132,-0.99097863
1314365044.16452503,0.13301091,-0.01555341,-0.99099253
1314365044.21251225,0.13265057,-0.01579043,-0.99103708
1314365044.26548362,0.13283510,-0.01576724,-0.99101273
1314365044.31349111,0.13277717,-0.01564446,-0.99102244
1314365044.36421227,0.13250831,-0.01561408,-0.99105890
1314365044.41337800,0.13256029,-0.01572725,-0.99105016
1314365044.46447039,0.13276210,-0.01567733,-0.99102394
1314365044.51345062,0.13253300,-0.01612976,-0.99104734
1314365044.56551957,0.13224338,-0.01585971,-0.99109039
1314365044.61350131,0.13195912,-0.01581986,-0.99112891
1314365044.66547751,0.13218911,-0.01557581,-0.99110213
1314365044.71262240,0.13224564,-0.01550837,-0.99109565
1314365044.76549220,0.13211861,-0.01529651,-0.99111588
1314365044.82552338,0.13206558,-0.01529531,-0.99112297
1314365044.86246133,0.13206082,-0.01540204,-0.99112195
1314365044.91346669,0.13197348,-0.01543234,-0.99113311
1314365044.96553564,0.13189128,-0.01532233,-0.99114576
1314365045.01338553,0.13163070,-0.01538786,-0.99117939
1314365045.06545830,0.13170728,-0.01535259,-0.99116976
1314365045.11262655,0.13147845,-0.01538858,-0.99119958
1314365045.16446066,0.13165583,-0.01498888,-0.99118216
1314365045.22452688,0.13154304,-0.01489497,-0.99119855
1314365045.26330876,0.13164315,-0.01478888,-0.99118685
1314365045.31347060,0.13153152,-0.01474997,-0.99120225
1314365045.36535215,0.13148336,-0.01490577,-0.99120631
1314365045.41652775,0.13158257,-0.01490771,-0.99119311
1314365045.46552587,0.13163175,-0.01501535,-0.99118496
1314365045.51341128,0.13181723,-0.01503562,-0.99116000
1314365045.56357360,0.13182493,-0.01499720,-0.99115956
1314365045.62454891,0.13178041,-0.01508445,-0.99116415
1314365045.66448593,0.13176635,-0.01503206,-0.99116682
1314365045.71332479,0.13194620,-0.01519509,-0.99114041
1314365045.76382685,0.13172189,-0.01505701,-0.99117235
1314365045.81347108,0.13148711,-0.01507067,-0.99120332
1314365045.86825800,0.13139243,-0.01525974,-0.99121298
1314365045.91347551,0.13157049,-0.01508982,-0.99119196
1314365045.96850634,0.13151832,-0.01524059,-0.99119658
1314365046.02671385,0.13161679,-0.01533920,-0.99118199
1314365046.06441832,0.13175329,-0.01534787,-0.99116372
1314365046.11346221,0.13191637,-0.01528812,-0.99114295
1314365046.16533685,0.13210690,-0.01522134,-0.99111860
1314365046.21337938,0.13195330,-0.01517860,-0.99113972
1314365046.26830816,0.13194771,-0.01498525,-0.99114340
1314365046.31332302,0.13204247,-0.01519058,-0.99112766
1314365046.36454535,0.13216082,-0.01533715,-0.99110963
1314365046.41344881,0.13213576,-0.01540653,-0.99111189
1314365046.46865916,0.13209106,-0.01560177,-0.99111479
1314365046.51347184,0.13204418,-0.01534202,-0.99112510
1314365046.56464124,0.13198455,-0.01517564,-0.99113560
1314365046.61659336,0.13225494,-0.01503330,-0.99110173
1314365046.66846037,0.13234027,-0.01510714,-0.99108921
1314365046.71250510,0.13250144,-0.01527534,-0.99106510
1314365046.76852202,0.13253681,-0.01510060,-0.99106305
1314365046.81285048,0.13258110,-0.01550267,-0.99105092
1314365046.86463046,0.13281113,-0.01568186,-0.99101730
1314365046.91261148,0.13294959,-0.01567725,-0.99099880
1314365046.96551967,0.13308965,-0.01552540,-0.99098239
1314365047.01260829,0.13318223,-0.01555652,-0.99096947
1314365047.06548858,0.13311517,-0.01557993,-0.99097811
1314365047.11260176,0.13326695,-0.01541759,-0.99096025
1314365047.16529346,0.13324701,-0.01519482,-0.99096637
1314365047.22526836,0.13328810,-0.01512012,-0.99096199
1314365047.26552343,0.13328973,-0.01520527,-0.99096047
1314365047.31300020,0.13334530,-0.01517510,-0.99095345
1314365047.36542535,0.13326197,-0.01519466,-0.99096436
1314365047.41349483,0.13312985,-0.01530586,-0.99098041
1314365047.46550083,0.13320065,-0.01527232,-0.99097141
1314365047.51344562,0.13314636,-0.01508012,-0.99098165
1314365047.56454492,0.13338209,-0.01477393,-0.99095456
1314365047.62540650,0.13308810,-0.01491759,-0.99099194
1314365047.66551042,0.13331215,-0.01508103,-0.99095935
1314365047.71347618,0.13352269,-0.01490959,-0.99093360
1314365047.76459432,0.13343989,-0.01485477,-0.99094557
1314365047.81327558,0.13320752,-0.01478554,-0.99097787
1314365047.86546540,0.13334784,-0.01497828,-0.99095611
1314365047.91259408,0.13358551,-0.01500743,-0.99092365
1314365047.96552062,0.13358751,-0.01473877,-0.99092742
1314365048.01253557,0.13351334,-0.01487436,-0.99093539
1314365048.06859660,0.13345483,-0.01498061,-0.99094167
1314365048.11344981,0.13333565,-0.01500584,-0.99095733
1314365048.16578078,0.13316822,-0.01502899,-0.99097949
1314365048.21423602,0.13328945,-0.01505679,-0.99096277
1314365048.26553631,0.13326396,-0.01525601,-0.99096315
1314365048.31426907,0.13294747,-0.01486848,-0.99101155
1314365048.36545920,0.13291989,-0.01462945,-0.99101881
1314365048.41360927,0.13278309,-0.01468715,-0.99103629
1314365048.46536374,0.13279349,-0.01456541,-0.99103670
1314365048.51346612,0.13262783,-0.01442420,-0.99106095
1314365048.56463361,0.13250981,-0.01433696,-0.99107800
1314365048.61269951,0.13242552,-0.01430208,-0.99108977
1314365048.66883063,0.13245557,-0.01404993,-0.99108936
1314365048.71335363,0.13257514,-0.01405177,-0.99107335
1314365048.76456785,0.13258463,-0.01431062,-0.99106837
1314365048.81261921,0.13271685,-0.01419922,-0.99105228
1314365048.86454654,0.13271057,-0.01438669,-0.99105042
1314365048.91347694,0.13257360,-0.01441678,-0.99106831
1314365048.96555448,0.13246665,-0.01455250,-0.99108063
1314365049.01351523,0.13252389,-0.01451922,-0.99107346
1314365049.06550765,0.13221140,-0.01423504,-0.99111932
1314365049.11247873,0.13210405,-0.01446790,-0.99113026
1314365049.16852546,0.13232954,-0.01457761,-0.99109858
1314365049.21347761,0.13242182,-0.01485848,-0.99108208
1314365049.26453328,0.13237823,-0.01490172,-0.99108725
1314365049.31344891,0.13220744,-0.01492477,-0.99110970
1314365049.36447382,0.13211592,-0.01488598,-0.99112249
1314365049.41350126,0.13249643,-0.01480475,-0.99107291
1314365049.46546555,0.13268024,-0.01501137,-0.99104521
1314365049.51351643,0.13267154,-0.01508261,-0.99104530
1314365049.56459451,0.13251787,-0.01516045,-0.99106467
1314365049.61351585,0.13253000,-0.01514869,-0.99106322
1314365049.66846919,0.13237858,-0.01527453,-0.99108153
1314365049.71345973,0.13230088,-0.01522779,-0.99109263
1314365049.76547956,0.13231474,-0.01511308,-0.99109253
1314365049.81549430,0.13223993,-0.01495421,-0.99110493
1314365049.86567855,0.13198307,-0.01517503,-0.99113581
1314365049.91349983,0.13197254,-0.01530366,-0.99113523
1314365049.96450186,0.13192423,-0.01529775,-0.99114175
1314365050.01348138,0.13182538,-0.01547682,-0.99115213
1314365050.06454158,0.13186818,-0.01534630,-0.99114846
1314365050.11346078,0.13198327,-0.01545220,-0.99113150
1314365050.16554165,0.13216194,-0.01550773,-0.99110682
1314365050.21621585,0.13189098,-0.01537920,-0.99114492
1314365050.26595974,0.13198973,-0.01528284,-0.99113326
1314365050.31268287,0.13211607,-0.01524716,-0.99111698
1314365050.36455011,0.13216344,-0.01542571,-0.99110790
1314365050.41348314,0.13209703,-0.01545118,-0.99111636
1314365050.46627116,0.13228927,-0.01577759,-0.99108557
1314365050.51347065,0.13230494,-0.01563212,-0.99108579
1314365050.56452727,0.13225757,-0.01573584,-0.99109047
1314365050.61328840,0.13217538,-0.01559999,-0.99110358
1314365050.66857147,0.13248566,-0.01573645,-0.99105999
1314365050.71439791,0.13242362,-0.01561367,-0.99107023
1314365050.76852226,0.13247465,-0.01554236,-0.99106453
1314365050.82561779,0.13256645,-0.01552228,-0.99105257
1314365050.86549878,0.13262623,-0.01527681,-0.99104839
1314365050.91346574,0.13288072,-0.01530287,-0.99101389
1314365050.96563101,0.13294619,-0.01525400,-0.99100587
1314365051.01260400,0.13294701,-0.01530019,-0.99100504
1314365051.06548238,0.13276138,-0.01516123,-0.99103206
1314365051.11350608,0.13282214,-0.01521365,-0.99102312
1314365051.16717291,0.13258537,-0.01549177,-0.99105052
1314365051.21347690,0.13270702,-0.01551914,-0.99103381
1314365051.26453185,0.13280152,-0.01551556,-0.99102120
1314365051.31348062,0.13244013,-0.01553206,-0.99106930
1314365051.36475849,0.13242778,-0.01574633,-0.99106757
1314365051.41328073,0.13236973,-0.01599989,-0.99107127
1314365051.46674585,0.13231992,-0.01603573,-0.99107734
1314365051.51326847,0.13239253,-0.01619568,-0.99106504
1314365051.56957364,0.13229841,-0.01618685,-0.99107776
1314365051.61349034,0.13244449,-0.01618045,-0.99105835
1314365051.66453075,0.13254656,-0.01645393,-0.99104020
1314365051.71344995,0.13243078,-0.01640249,-0.99105653
1314365051.76552820,0.13208353,-0.01683865,-0.99109556
1314365051.81325769,0.13199400,-0.01669525,-0.99110991
1314365051.86370730,0.13201265,-0.01663237,-0.99110848
1314365051.91260338,0.13190786,-0.01664306,-0.99112226
1314365051.96452999,0.13180828,-0.01671356,-0.99113432
1314365052.02510595,0.13225145,-0.01678027,-0.99107415
1314365052.06549668,0.13237502,-0.01669385,-0.99105911
1314365052.11369681,0.13221726,-0.01677021,-0.99107888
1314365052.16463065,0.13216637,-0.01680541,-0.99108508
1314365052.21357322,0.13221125,-0.01679593,-0.99107925
1314365052.26553106,0.13192091,-0.01654357,-0.99112218
1314365052.31279588,0.13182152,-0.01630986,-0.99113928
1314365052.36951232,0.13154284,-0.01641317,-0.99117460
1314365052.41352248,0.13160664,-0.01627569,-0.99116840
1314365052.46553779,0.13157827,-0.01619898,-0.99117342
1314365052.51347017,0.13181959,-0.01649403,-0.99113649
1314365052.56550217,0.13168317,-0.01631793,-0.99115754
1314365052.61364865,0.13189362,-0.01657429,-0.99112530
1314365052.66675425,0.13202239,-0.01645639,-0.99111012
1314365052.71319866,0.13186257,-0.01656378,-0.99112961
1314365052.76851892,0.13165730,-0.01660138,-0.99115627
1314365052.81348729,0.13163462,-0.01659387,-0.99115941
1314365052.86518025,0.13157642,-0.01667393,-0.99116579
1314365052.91307688,0.13142326,-0.01659512,-0.99118743
1314365052.96546960,0.13137447,-0.01656916,-0.99119434
1314365053.01252198,0.13116433,-0.01648367,-0.99122359
1314365053.06548643,0.13119157,-0.01657569,-0.99121845
1314365053.11347222,0.13106294,-0.01658709,-0.99123528
1314365053.16465473,0.13092089,-0.01640900,-0.99125701
1314365053.21351480,0.13066867,-0.01656287,-0.99128773
1314365053.26562238,0.13034792,-0.01658488,-0.99132959
1314365053.31356859,0.13038043,-0.01672747,-0.99132292
1314365053.36522198,0.13052493,-0.01679083,-0.99130283
1314365053.41321325,0.13052867,-0.01679804,-0.99130222
1314365053.46549487,0.13054679,-0.01680891,-0.99129965
1314365053.51361513,0.13019828,-0.01669073,-0.99134748
1314365053.56850481,0.13021821,-0.01661522,-0.99134613
1314365053.61306882,0.13047162,-0.01661148,-0.99131287
1314365053.66561532,0.13072975,-0.01635341,-0.99128316
1314365053.71347761,0.13089662,-0.01637072,-0.99126085
1314365053.76453090,0.13067714,-0.01626941,-0.99129148
1314365053.81319237,0.13060961,-0.01617803,-0.99130187
1314365053.86551070,0.13047900,-0.01595369,-0.99132271
1314365053.91313910,0.13012958,-0.01591825,-0.99136921
1314365053.96587396,0.13008431,-0.01611170,-0.99137202
1314365054.01346469,0.13008185,-0.01618162,-0.99137121
1314365054.06461596,0.13031937,-0.01618974,-0.99133988
1314365054.11345100,0.13053362,-0.01619709,-0.99131157
1314365054.16455197,0.13081710,-0.01611803,-0.99127549
1314365054.21361685,0.13094915,-0.01595579,-0.99126068
1314365054.26549506,0.13085804,-0.01599359,-0.99127210
1314365054.31270432,0.13074763,-0.01619492,-0.99128340
1314365054.36466479,0.13067472,-0.01604361,-0.99129548
1314365054.41254926,0.13072813,-0.01612539,-0.99128711
1314365054.46448088,0.13063011,-0.01630091,-0.99129716
1314365054.51346540,0.13065070,-0.01625636,-0.99129518
1314365054.56505179,0.13058995,-0.01657955,-0.99129783
1314365054.61302447,0.13053800,-0.01653734,-0.99130538
1314365054.66590023,0.13058443,-0.01640010,-0.99130154
1314365054.71632242,0.13063550,-0.01638794,-0.99129501
1314365054.76505280,0.13096666,-0.01645833,-0.99125015
1314365054.81344652,0.13097147,-0.01647815,-0.99124918
1314365054.86502504,0.13109247,-0.01641787,-0.99123419
1314365054.91347718,0.13126166,-0.01629266,-0.99121386
1314365054.96462107,0.13124633,-0.01633915,-0.99121513
1314365055.01352406,0.13128314,-0.01638616,-0.99120948
1314365055.06589413,0.13119541,-0.01628929,-0.99122269
1314365055.11361742,0.13124584,-0.01613062,-0.99121861
1314365055.16948700,0.13124453,-0.01631641,-0.99121574
1314365055.22461891,0.13146742,-0.01624350,-0.99118740
1314365055.26562238,0.13160428,-0.01632062,-0.99116797
1314365055.31345034,0.13179717,-0.01641374,-0.99114080
1314365055.36452961,0.13209498,-0.01675517,-0.99109544
1314365055.41362476,0.13205956,-0.01671079,-0.99110091
1314365055.46791196,0.13196822,-0.01674590,-0.99111249
1314365055.51362920,0.13193558,-0.01685748,-0.99111494
1314365055.56949639,0.13192471,-0.01666816,-0.99111959
1314365055.61301565,0.13193994,-0.01698230,-0.99111223
1314365055.66562676,0.13181577,-0.01694419,-0.99112940
1314365055.71349621,0.13178432,-0.01693717,-0.99113371
1314365055.77347541,0.13167554,-0.01715647,-0.99114439
1314365055.81250167,0.13197375,-0.01713370,-0.99110512
